Frederick, MD

11:07 AM EST on December 13, 2019 (GMT -0500)
Frederick Municipal

Weather History for KFDK - August, 2019

Change the Weather History Date:

Sunday, August 4, 2019

  Actual Average (WUND) Record (WUND)
Temperature  
Mean Temperature 78 °F -  
Max Temperature 89 °F - - (-1)
Min Temperature 68 °F - - (-1)
Cooling Degree Days 14    
Growing Degree Days 28 (Base 50)    
Moisture  
Dew Point 68 °F    
Average Humidity 83    
Maximum Humidity 100    
Minimum Humidity 31    
Precipitation  
Precipitation 0.00 in - - ()
Sea Level Pressure  
Sea Level Pressure 29.98 in    
Wind  
Wind Speed 1 mph (ENE)    
Max Wind Speed 12 mph    
Max Gust Speed 17 mph    
Visibility 10 miles    
Events Thunderstorm    
Averages and records for this station are not official NWS values.
T = Trace of Precipitation, MM = Missing Value Source: NWS Daily Summary

Daily Weather History Graph

Daily Weather History Graph

Search for Another Location

Airport or City:

Astronomy

Aug. 04, 2019 Rise Set
Actual Time 6:11 AM EDT 8:18 PM EDT
Civil Twilight 5:42 AM EDT 8:48 PM EDT
Nautical Twilight 5:05 AM EDT 9:24 PM EDT
Astronomical Twilight 4:25 AM EDT 10:04 PM EDT
Moon 10:13 AM EDT (8/4) 10:58 PM EDT (8/4)
Length of Visible Light 15h 06m
Length of Day
14h 07m
Waxing Crescent, 18% of the Moon is Illuminated
Aug 4
Waxing Crescent
Aug 7
First Quarter
Aug 15
Full
Aug 23
Last Quarter
Aug 30
New

Hourly Weather History & Observations

Time (EDT) Temp. Heat Index Dew Point Humidity Pressure Visibility Wind Dir Wind Speed Gust Speed Precip Events Conditions
12:05 AM 73.4 °F - 69.8 °F 88% 30.01 in 10.0 mi ESE 3.5 mph - N/A   Scattered Clouds
12:25 AM 73.4 °F - 69.8 °F 88% 30.00 in 10.0 mi Calm Calm - N/A   Scattered Clouds
12:45 AM 73.4 °F - 69.8 °F 88% 30.01 in 10.0 mi Calm Calm - N/A Thunderstorm Clear
1:05 AM 73.4 °F - 69.8 °F 88% 30.01 in 10.0 mi Calm Calm - N/A Thunderstorm Thunderstorm
1:25 AM 71.6 °F - 69.8 °F 94% 30.00 in 10.0 mi Calm Calm - N/A Thunderstorm Clear
1:45 AM 71.6 °F - 69.8 °F 94% 29.99 in 10.0 mi Calm Calm - N/A   Clear
2:05 AM 71.6 °F - 69.8 °F 94% 29.99 in 10.0 mi Calm Calm - N/A   Clear
2:25 AM 71.6 °F - 69.8 °F 94% 29.99 in 10.0 mi SW 3.5 mph - N/A   Clear
2:45 AM 71.6 °F - 69.8 °F 94% 29.98 in 10.0 mi Calm Calm - N/A   Clear
3:05 AM 69.8 °F - 69.8 °F 100% 29.98 in 10.0 mi Calm Calm - N/A   Clear
3:25 AM 71.6 °F - 69.8 °F 94% 29.98 in 10.0 mi SSE 3.5 mph - N/A   Clear
3:45 AM 71.6 °F - 69.8 °F 94% 29.97 in 10.0 mi SSE 4.6 mph - N/A   Scattered Clouds
4:05 AM 71.6 °F - 69.8 °F 94% 29.97 in 10.0 mi SE 3.5 mph - N/A   Clear
4:25 AM 71.6 °F - 69.8 °F 94% 29.97 in 10.0 mi Calm Calm - N/A   Scattered Clouds
4:45 AM 71.6 °F - 69.8 °F 94% 29.96 in 10.0 mi Calm Calm - N/A   Clear
5:05 AM 71.6 °F - 69.8 °F 94% 29.96 in 10.0 mi Calm Calm - N/A   Scattered Clouds
5:25 AM 69.8 °F - 69.8 °F 100% 29.96 in 10.0 mi Calm Calm - N/A   Mostly Cloudy
5:45 AM 69.8 °F - 68.0 °F 94% 29.97 in 10.0 mi Calm Calm - N/A   Clear
6:25 AM 69.8 °F - 68.0 °F 94% 29.97 in 7.0 mi Calm Calm - N/A   Scattered Clouds
6:45 AM 68.0 °F - 68.0 °F 100% 29.98 in 4.0 mi Calm Calm - N/A   Clear
6:50 AM 69.8 °F - 68.0 °F 94% 29.98 in 9.0 mi Calm Calm - N/A   Partly Cloudy
7:05 AM 69.8 °F - 68.0 °F 94% 29.99 in 5.0 mi Calm Calm - N/A   Clear
7:47 AM 71.6 °F - 69.8 °F 94% 30.00 in - Calm Calm - N/A   Partly Cloudy
8:50 AM 73.4 °F - 69.8 °F 88% 30.00 in 10.0 mi Calm Calm - N/A   Partly Cloudy
9:47 AM 78.8 °F - 69.8 °F 74% 30.00 in 10.0 mi Calm Calm - N/A   Partly Cloudy
11:47 AM 87.8 °F 91.4 °F 68.0 °F 52% 29.99 in 10.0 mi NNE 3.5 mph - N/A   Clear
11:58 AM 82.4 °F 86.3 °F 69.8 °F 66% 30.00 in 10.0 mi ENE 3.5 mph - N/A   Clear
12:47 PM 87.8 °F 87.1 °F 59.0 °F 38% 29.98 in 10.0 mi North - - N/A   Volcanic Ash
2:47 PM 89.6 °F 89.5 °F 60.8 °F 38% 29.96 in 10.0 mi NNW 6.9 mph - N/A   Scattered Clouds
3:47 PM 89.6 °F 87.7 °F 55.4 °F 31% 29.94 in 10.0 mi WNW 11.5 mph 17.3 mph N/A   Scattered Clouds
4:47 PM 89.6 °F 88.1 °F 57.2 °F 33% 29.94 in 10.0 mi NNE 5.8 mph - N/A   Mostly Cloudy
6:47 PM 87.8 °F 89.4 °F 64.4 °F 46% 29.95 in 10.0 mi NE 4.6 mph - N/A   Partly Cloudy
7:47 PM 82.4 °F 87.2 °F 71.6 °F 70% 29.95 in 10.0 mi Calm Calm - N/A   Clear
8:57 PM 77.0 °F - 69.8 °F 78% 29.97 in 10.0 mi Calm Calm - N/A   Clear
9:25 PM 75.2 °F - 69.8 °F 83% 29.97 in 10.0 mi Calm Calm - N/A   Clear
9:45 PM 73.4 °F - 68.0 °F 83% 29.98 in 10.0 mi Calm Calm - N/A   Clear
10:05 PM 73.4 °F - 68.0 °F 83% 29.98 in 10.0 mi Calm Calm - N/A   Clear
10:25 PM 71.6 °F - 68.0 °F 88% 29.98 in 10.0 mi Calm Calm - N/A   Clear
10:45 PM 71.6 °F - 68.0 °F 88% 29.99 in 10.0 mi Calm Calm - N/A   Clear
11:05 PM 71.6 °F - 68.0 °F 88% 29.99 in 10.0 mi Calm Calm - N/A   Clear
11:25 PM 71.6 °F - 68.0 °F 88% 29.99 in 10.0 mi Calm Calm - N/A   Clear
11:45 PM 69.8 °F - 68.0 °F 94% 29.99 in 10.0 mi Calm Calm - N/A   Clear